SCP
-1 -0 -0 -0 -0 -0 0 0 0 0 0 0 0 0 0 0 0 0 0 0 0 0
-0 -0 -0 -0 -0 0 0 0 0 0 0 0 0 0 0 0 0 0 0 0 0 0
0 0 -0 0 0 0 0 0 0 0 0 0 0 0 0 0 0 0 0 0 0 0
-0 0 0 0 0 1 2 1 1 0 0 0 0 0 0 0 0 0 0 0 0 0
-0 -0 -0 0 0 2 1 1 1 0 0 0 0 0 0 0 0 0 0 0 0 0
-0 -0 1 1 1 3 1 1 1 1 2 1 0 0 0 0 0 0 0 0 0 0
0 0 1 2 2 2 1 1 0 1 1 0 -0 0 0 0 0 0 0 0 0 0
1 1 1 2 2 2 1 1 0 0 0 0 0 0 0 0 0 0 0 0 0 0
1 2 2 2 1 2 2 1 0 0 0 0 0 0 0 0 0 0 0 0 1 1
2 2 2 1 2 2 2 1 0 0 0 0 0 0 0 0 0 0 0 1 1 1
1 1 1 2 1 1 1 1 1 1 0 0 0 0 0 0 0 0 1 1 1 1
1 1 1 1 1 2 1 1 1 1 0 0 0 0 0 0 0 0 0 0 1 1
0 0 1 1 2 2 1 1 1 1 0 0 1 0 0 0 0 1 0 0 0 0
-0 0 2 2 3 2 1 1 1 1 0 1 0 0 0 0 0 0 1 0 1 1
Wind_Speed_500mb
54 46 43 39 35 32 29 26 24 25 25 20 20 18 17 14 11 13 11 12 13 14
60 56 44 40 36 34 31 26 28 26 26 21 22 21 21 18 18 17 16 18 18 20
63 59 54 47 49 45 36 32 29 30 28 23 22 24 25 22 22 23 19 18 20 23
62 57 60 58 56 43 40 34 33 30 31 25 26 27 31 28 25 24 23 23 23 23
65 63 64 65 64 58 53 39 29 23 29 32 30 30 35 32 27 26 27 26 25 22
70 73 65 68 69 67 57 42 39 54 56 42 48 41 39 38 34 30 29 29 27 26
67 59 64 67 81 70 67 61 63 73 66 70 55 56 46 40 37 35 32 32 31 31
50 51 55 69 83 79 81 82 81 79 89 74 64 58 51 46 40 39 36 33 33 34
47 50 58 73 74 80 93 98 98 92 82 70 66 57 54 50 40 38 35 32 33 38
51 51 54 55 60 70 84 98 96 89 73 55 73 60 53 48 46 38 35 37 39 42
44 44 43 47 49 52 65 85 90 76 69 51 65 64 63 52 51 51 45 49 46 49
37 38 40 42 44 47 51 66 63 61 54 45 51 56 54 56 53 50 59 52 61 67
31 34 35 33 38 40 47 47 50 48 43 43 45 42 48 51 55 60 55 54 59 55
30 35 34 35 33 38 42 41 48 45 42 50 44 46 42 36 44 49 52 47 38 27
Wind_Direction_500mb
226 221 224 227 219 224 221 224 225 238 248 237 227 228 232 219 223 246 253 250 269 264
229 224 219 218 225 224 224 223 220 235 249 237 230 232 227 211 231 232 244 250 258 269
229 230 224 218 218 217 220 225 225 233 241 236 242 246 239 233 241 233 236 245 247 258
225 224 229 228 236 231 224 244 236 249 252 244 263 248 244 238 233 239 245 241 245 251
225 225 227 229 230 229 233 225 215 252 274 268 266 245 244 243 238 242 243 242 243 247
228 229 223 228 230 226 224 217 191 225 245 267 271 253 244 245 245 241 242 241 242 249
225 221 222 226 233 229 221 209 211 240 252 260 260 260 249 245 244 241 239 244 247 249
221 220 222 230 235 230 224 225 234 241 259 273 243 245 249 239 238 242 242 245 255 261
219 218 229 242 240 234 230 236 236 245 248 250 230 237 235 240 240 242 246 253 258 261
216 225 231 239 240 242 240 229 230 236 241 253 226 234 242 247 248 246 251 254 269 276
210 216 222 230 236 239 240 236 230 235 244 253 230 233 242 246 247 250 251 254 260 277
204 208 214 222 231 227 228 230 225 234 254 239 229 236 247 250 242 245 251 263 279 280
204 205 214 218 222 231 226 219 220 237 245 225 228 244 244 243 241 248 261 284 281 283
199 201 203 208 211 225 228 218 226 243 231 224 231 241 248 238 243 250 271 284 281 275
Wind_Speed_850mb
54 46 43 39 35 32 29 26 24 25 25 20 20 18 17 14 11 13 11 12 13 14
60 56 44 40 36 34 31 26 28 26 26 21 22 21 21 18 18 17 16 18 18 20
63 59 54 47 49 45 36 32 29 30 28 23 22 24 25 22 22 23 19 18 20 23
62 57 60 58 56 43 40 34 33 30 31 25 26 27 31 28 25 24 23 23 23 23
65 63 64 65 64 58 53 39 29 23 29 32 30 30 35 32 27 26 27 26 25 22
70 73 65 68 69 67 57 42 39 54 56 42 48 41 39 38 34 30 29 29 27 26
67 59 64 67 81 70 67 61 63 73 66 70 55 56 46 40 37 35 32 32 31 31
50 51 55 69 83 79 81 82 81 79 89 74 64 58 51 46 40 39 36 33 33 34
47 50 58 73 74 80 93 98 98 92 82 70 66 57 54 50 40 38 35 32 33 38
51 51 54 55 60 70 84 98 96 89 73 55 73 60 53 48 46 38 35 37 39 42
44 44 43 47 49 52 65 85 90 76 69 51 65 64 63 52 51 51 45 49 46 49
37 38 40 42 44 47 51 66 63 61 54 45 51 56 54 56 53 50 59 52 61 67
31 34 35 33 38 40 47 47 50 48 43 43 45 42 48 51 55 60 55 54 59 55
30 35 34 35 33 38 42 41 48 45 42 50 44 46 42 36 44 49 52 47 38 27
Wind_Direction_850mb
226 221 224 227 219 224 221 224 225 238 248 237 227 228 232 219 223 246 253 250 269 264
229 224 219 218 225 224 224 223 220 235 249 237 230 232 227 211 231 232 244 250 258 269
229 230 224 218 218 217 220 225 225 233 241 236 242 246 239 233 241 233 236 245 247 258
225 224 229 228 236 231 224 244 236 249 252 244 263 248 244 238 233 239 245 241 245 251
225 225 227 229 230 229 233 225 215 252 274 268 266 245 244 243 238 242 243 242 243 247
228 229 223 228 230 226 224 217 191 225 245 267 271 253 244 245 245 241 242 241 242 249
225 221 222 226 233 229 221 209 211 240 252 260 260 260 249 245 244 241 239 244 247 249
221 220 222 230 235 230 224 225 234 241 259 273 243 245 249 239 238 242 242 245 255 261
219 218 229 242 240 234 230 236 236 245 248 250 230 237 235 240 240 242 246 253 258 261
216 225 231 239 240 242 240 229 230 236 241 253 226 234 242 247 248 246 251 254 269 276
210 216 222 230 236 239 240 236 230 235 244 253 230 233 242 246 247 250 251 254 260 277
204 208 214 222 231 227 228 230 225 234 254 239 229 236 247 250 242 245 251 263 279 280
204 205 214 218 222 231 226 219 220 237 245 225 228 244 244 243 241 248 261 284 281 283
199 201 203 208 211 225 228 218 226 243 231 224 231 241 248 238 243 250 271 284 281 275